Hourly Data Report for October 18, 2014

All times are specified in Local Standard Time (LST). Add 1 hour to adjust for Daylight Saving Time where and when it is observed.

BATHURST A
NEW BRUNSWICK

47°37'47.000" N
65°44'20.000" W
58.80 m
8100505
71574
ZBF

Download Data

Hourly Data (October 2014)
Hourly Data Report for October 18, 2014
Temp Definition
°C
Dew Point Temp Definition
°C
Rel Hum Definition
%
Wind Dir Definition
10's deg

Wind Spd Definition
km/h
Visibility Definition
km
Stn Press Definition
kPa
Hmdx Definition


Wind Chill Definition


Weather Definition


TIME
00:00 Legend Double Dagger 10.1 9.8 98 20 6 9.7 99.46     Fog
01:00 Legend Double Dagger 10.8 10.4 97 20 13 9.7 99.47     Fog
02:00 Legend Double Dagger 10.3 9.9 97 18 9 9.7 99.46     Fog
03:00 Legend Double Dagger 11.5 11.4 99 20 10 0.6 99.45     Fog
04:00 Legend Double Dagger 12.3 12.0 98 20 13 3.2 99.47     Fog
05:00 Legend Double Dagger 12.4 11.8 96 18 14 9.7 99.49     Fog
06:00 Legend Double Dagger 12.2 11.4 95 21 9 9.7 99.49     Fog
07:00 Legend Double Dagger 11.8 11.2 96 22 8 11.3 99.50     LegendNANA
08:00 Legend Double Dagger 12.7 11.8 94 21 10 14.5 99.53     Cloudy
09:00 Legend Double Dagger 13.1 11.8 92 20 14 16.1 99.53     LegendNANA
10:00 Legend Double Dagger 13.5 11.7 89 19 23 19.3 99.50     LegendNANA
11:00 Legend Double Dagger 14.9 12.1 83 19 15 20.9 99.44     Mainly Clear
12:00 Legend Double Dagger 14.5 11.7 83 19 18 20.9 99.40     LegendNANA
13:00 Legend Double Dagger 14.8 11.8 82 19 22 24.1 99.34     LegendNANA
14:00 Legend Double Dagger 15.3 11.9 80 20 25 24.1 99.28     Mostly Cloudy
15:00 Legend Double Dagger 16.1 12.1 77 21 16 24.1 99.27     LegendNANA
16:00 Legend Double Dagger 16.0 11.4 74 21 17 24.1 99.22     LegendNANA
17:00 Legend Double Dagger 15.4 11.8 79 18 9 24.1 99.21     Mostly Cloudy
18:00 Legend Double Dagger 14.1 12.2 88 16 3 24.1 99.23     LegendNANA
19:00 Legend Double Dagger 13.6 12.3 92 18 4 24.1 99.19     LegendNANA
20:00 Legend Double Dagger 12.3 11.8 97 13 5 9.7 99.18     Fog
21:00 Legend Double Dagger 11.5 11.1 97 36 2 9.7 99.13     Fog
22:00 Legend Double Dagger 12.4 11.9 97 16 7 9.7 99.04     Fog
23:00 Legend Double Dagger 12.0 11.7 98 36 3 4.8 98.97     Fog

Notes on Data Quality.

Legend

  • E = Estimated
  • M = Missing
  • NA = Not Available
  • ‡ = Partner data that is not subject to review by the National Climate Archives
Date modified: